Flag for Nicaragua Weather past 2 weeks in Masaya, Nicaragua

Now
79 °F

Passing clouds.


Feels Like: 82 °F
Forecast: 72 / 86 °F
Wind: 7 mph from Southeast

Location: Managua A. C. Sandino

Current Time: Sep 17, 2014 at 11:58:00 PM

Latest Report: Sep 17, 2014 at 11:00 PM


Visibility: N/A

Pressure: 29.92 "Hg

Humidity: 84%

Dew point: 73 °F

Location of MasayaLocation

Historic Weather in Masaya — Graph

°F

Masaya temperature yesterday

Maximum temperature yesterday: 88 °F (at 1:00 PM)
Minimum temperature yesterday: 73 °F (at 3:00 AM)
Average temperature yesterday: 80 °F

Past Weeks' High & Low Weather Summary

 TemperatureHumidityPressure
High93 °F (Sep 4, 2:00 PM)94% (Sep 3, 3:00 PM)29.98 "Hg (Sep 3, 3:00 PM)
Low73 °F (Sep 3, 3:00 PM)52% (Sep 9, 11:00 AM)29.68 "Hg (Sep 10, 4:00 PM)
Average81 °F80%29.82 "Hg
* Reported Sep 3 5:00 AM — Sep 17 11:00 PM, Masaya, Weather by CustomWeather, © 2014

Note: Actual official high and low records may vary slightly from our data, if they occured in-between our weather recording intervals... More about our weather records

Advertising

Masaya weather history for previous 24 hours

 ConditionsComfort  
Time TempWeatherWind HumidityBarometerVisibility
11:00 PM
Sep 17
79 °FPassing clouds.7 mph84%29.92 "HgN/A
9:00 PM79 °FPassing clouds.9 mph84%29.89 "HgN/A
8:00 PM81 °FPassing clouds.5 mph79%29.86 "HgN/A
7:00 PM82 °FPassing clouds.9 mph74%29.86 "HgN/A
6:00 PM84 °FPassing clouds.7 mph79%29.83 "HgN/A
5:00 PM88 °FPassing clouds.9 mph66%29.77 "HgN/A
4:00 PM88 °FScattered clouds.12 mph66%29.77 "HgN/A
3:00 PM90 °FPassing clouds.12 mph63%29.77 "HgN/A
2:00 PM90 °FPassing clouds.9 mph63%29.80 "HgN/A
1:00 PM90 °FPassing clouds.7 mph63%29.83 "HgN/A
11:00 AM88 °FPassing clouds.12 mph66%29.92 "HgN/A
10:00 AM84 °FScattered clouds.9 mph70%29.92 "HgN/A
9:00 AM82 °FScattered clouds.7 mph79%29.92 "HgN/A
8:00 AM81 °FPassing clouds.5 mph84%29.92 "HgN/A
7:00 AM77 °FScattered clouds.No wind89%29.89 "HgN/A
6:00 AM75 °FScattered clouds.No wind94%29.89 "HgN/A
5:00 AM75 °FPassing clouds.No wind94%29.86 "HgN/A
4:00 AM75 °FPassing clouds.No wind94%29.86 "HgN/A
12:00 AM75 °FPassing clouds.No wind94%29.92 "HgN/A
11:00 PM
Sep 16
75 °FPassing clouds.No wind94%29.92 "HgN/A
Weather by CustomWeather, © 2014

See weather overviewHow to use our weather pages